Location: *
(58.7167°N, 26.1833°E)
Time: 00:59:15
(UTC+00:00)

ATLAS 2AS CENTAUR R/B - Pass Details

Date: 25 August 2019
Orbit: 927 x 1285 km, 63.7° (Epoch: 14 September)

Event Time Altitude Azimuth Distance (km) Brightness Sun altitude
Rises 18:06:07 0° 262° (W) 4,254 6.8 -4.3°
Reaches altitude 10° 18:08:59 10° 266° (W) 3,292 6.3 -4.6°
Maximum altitude 18:17:00 65° 348° (NNW) 1,387 3.6 -5.5°
Drops below altitude 10° 18:24:45 10° 70° (ENE) 3,185 4.8 -6.4°
Sets 18:27:29 0° 74° (ENE) 4,109 5.4 -6.7°
